tititudorancea.com
Station Historical Data
Daily Summary for January 20, 2019 Units:  Metric    English   Both
« Previous Day
Next Day »
Daily Weekly Monthly Yearly Custom
  High: Low: Average:
Temperature: -17.8 °C 11.6 °C 20.2 °C
Dew Point: -17.8 °C 9.6 °C 12.6 °C
Humidity: Humidity % 32 % 65 %
Wind Speed: 0 km/h 9.3 km/h 20.9 km/h
Wind Gust: 0 km/h - -
Wind:- - South
Pressure: 0 hPa 1015.5 hPa -
Precipitation: 0 mm    
Historical Graphs
 
 
Ararat weather Find more about Weather in Ararat, AU


 



 


Tabular Data for January 20, 2019
Time Temperature Dew Point Pressure Wind Wind Speed Wind Gust Humidity Rainfall Rate (Hourly)
-17.8 °C -17.8 °C 0 hPa Calm     Humidity % 0 mm
00:04 14.1 °C 9.7 °C 1020.2 hPa South 16.7 km/h 11.9 km/h 75 % 0 mm
00:09 14 °C 9.6 °C 1020.2 hPa South 18.5 km/h 12.7 km/h 75 % 0 mm
00:14 13.9 °C 9.7 °C 1020.2 hPa South 22.2 km/h 12.9 km/h 76 % 0 mm
00:19 13.8 °C 9.7 °C 1020.2 hPa South 20.4 km/h 9.5 km/h 76 % 0 mm
00:24 13.8 °C 9.8 °C 1020.5 hPa South 24.1 km/h 14.3 km/h 77 % 0 mm
00:29 13.7 °C 9.9 °C 1020.5 hPa South 17.7 km/h 13.7 km/h 78 % 0 mm
00:34 13.6 °C 9.8 °C 1020.5 hPa South 22.2 km/h 11.1 km/h 78 % 0 mm
00:39 13.6 °C 10 °C 1020.5 hPa South 18.5 km/h 13.2 km/h 79 % 0 mm
00:44 13.5 °C 9.9 °C 1020.5 hPa South 24.1 km/h 12.7 km/h 79 % 0 mm
00:49 13.5 °C 9.9 °C 1020.5 hPa South 14.8 km/h 10.1 km/h 79 % 0 mm
00:54 13.4 °C 10 °C 1020.5 hPa South 20.9 km/h 11.7 km/h 80 % 0 mm
00:59 13.3 °C 9.9 °C 1020.2 hPa South 14.8 km/h 11.7 km/h 80 % 0 mm
01:04 13.3 °C 10.1 °C 1020.2 hPa South 13 km/h 10.1 km/h 81 % 0 mm
01:09 13.2 °C 10.1 °C 1020.2 hPa South 16.7 km/h 12.7 km/h 81 % 0 mm
01:14 13.2 °C 10 °C 1020.2 hPa South 17.7 km/h 13.5 km/h 81 % 0 mm
01:19 13.1 °C 10.1 °C 1020.2 hPa South 13 km/h 9 km/h 82 % 0 mm
01:24 13.1 °C 10.1 °C 1020.2 hPa South 14.8 km/h 6 km/h 82 % 0 mm
01:29 12.9 °C 9.9 °C 1020.5 hPa South 18.5 km/h 10.3 km/h 82 % 0 mm
01:34 12.9 °C 9.9 °C 1020.5 hPa North 13 km/h 9.5 km/h 82 % 0 mm
01:39 12.8 °C 10 °C 1020.5 hPa South 16.7 km/h 7.2 km/h 83 % 0 mm
01:44 12.8 °C 9.9 °C 1020.2 hPa South 14.8 km/h 8 km/h 83 % 0 mm
01:49 12.7 °C 9.9 °C 1020.2 hPa North 16.7 km/h 7.7 km/h 83 % 0 mm
01:54 12.7 °C 9.8 °C 1020.2 hPa South 12.9 km/h 10.8 km/h 83 % 0 mm
01:59 12.6 °C 10 °C 1020.2 hPa South 16.7 km/h 7.7 km/h 84 % 0 mm
02:04 12.5 °C 9.9 °C 1019.9 hPa South 14.8 km/h 9 km/h 84 % 0 mm
02:09 12.4 °C 9.8 °C 1019.9 hPa South 14.8 km/h 13 km/h 84 % 0 mm
02:14 12.4 °C 9.9 °C 1019.9 hPa South 12.9 km/h 10.9 km/h 85 % 0 mm
02:19 12.3 °C 9.8 °C 1019.9 hPa North 14.8 km/h 9 km/h 85 % 0 mm
02:24 12.2 °C 9.8 °C 1019.9 hPa North 13 km/h 10.6 km/h 85 % 0 mm
02:29 12.2 °C 9.7 °C 1019.9 hPa South 11.1 km/h 7.4 km/h 85 % 0 mm
02:34 12.1 °C 9.8 °C 1019.9 hPa North 14.8 km/h 6 km/h 86 % 0 mm
02:39 12.1 °C 9.8 °C 1019.9 hPa South 11.1 km/h 9.5 km/h 86 % 0 mm
02:44 12.1 °C 9.8 °C 1019.9 hPa South 13 km/h 10.3 km/h 86 % 0 mm
02:49 12.1 °C 9.8 °C 1019.9 hPa South 14.8 km/h 9.7 km/h 86 % 0 mm
02:54 12 °C 9.7 °C 1019.9 hPa South 11.1 km/h 8.2 km/h 86 % 0 mm
02:59 12 °C 9.9 °C 1019.9 hPa South 9.3 km/h 6.6 km/h 87 % 0 mm
03:04 12 °C 9.9 °C 1019.9 hPa South 11.1 km/h 7.1 km/h 87 % 0 mm
03:09 12 °C 9.9 °C 1019.9 hPa South 18.5 km/h 6.6 km/h 87 % 0 mm
03:14 11.9 °C 9.8 °C 1019.9 hPa South 14.8 km/h 8.4 km/h 87 % 0 mm
03:19 11.9 °C 9.8 °C 1019.5 hPa South 13 km/h 10 km/h 87 % 0 mm
03:24 11.9 °C 9.8 °C 1019.9 hPa South 11.1 km/h 9.5 km/h 87 % 0 mm
03:29 11.9 °C 9.8 °C 1019.5 hPa South 14.8 km/h 10.8 km/h 87 % 0 mm
03:34 11.9 °C 9.9 °C 1019.5 hPa South 14.8 km/h 11.1 km/h 88 % 0 mm
03:39 11.8 °C 9.7 °C 1019.5 hPa South 16.7 km/h 13 km/h 87 % 0 mm
03:44 11.8 °C 9.8 °C 1019.5 hPa South 14.8 km/h 9.8 km/h 88 % 0 mm
03:49 11.7 °C 9.8 °C 1019.5 hPa South 18.5 km/h 9.5 km/h 88 % 0 mm
03:54 11.7 °C 9.7 °C 1019.5 hPa South 18.5 km/h 12.9 km/h 88 % 0 mm
03:59 11.6 °C 9.7 °C 1019.5 hPa South 16.7 km/h 10 km/h 88 % 0 mm
04:04 11.6 °C 9.7 °C 1019.5 hPa South 13 km/h 10.8 km/h 88 % 0 mm
04:09 11.6 °C 9.8 °C 1019.5 hPa South 14.8 km/h 10.3 km/h 89 % 0 mm
04:14 11.7 °C 9.9 °C 1019.5 hPa South 16.7 km/h 10.5 km/h 89 % 0 mm
04:19 11.8 °C 10.1 °C 1019.5 hPa South 13 km/h 9.7 km/h 89 % 0 mm
04:24 11.9 °C 10.2 °C 1019.5 hPa South 14.8 km/h 10.1 km/h 89 % 0 mm
04:29 12 °C 10.2 °C 1019.5 hPa South 13 km/h 11.6 km/h 89 % 0 mm
04:34 12.1 °C 10.3 °C 1019.5 hPa South 20.4 km/h 8.4 km/h 89 % 0 mm
04:39 12.1 °C 10.3 °C 1019.2 hPa North 16.7 km/h 7.7 km/h 89 % 0 mm
04:44 12.2 °C 10.4 °C 1019.2 hPa North 14.8 km/h 10.3 km/h 89 % 0 mm
04:49 12.3 °C 10.5 °C 1019.2 hPa South 13 km/h 11.4 km/h 89 % 0 mm
04:54 12.3 °C 10.6 °C 1019.2 hPa South 16.7 km/h 12.7 km/h 89 % 0 mm
04:59 12.4 °C 10.7 °C 1019.2 hPa South 13 km/h 12.7 km/h 89 % 0 mm
05:04 12.6 °C 10.8 °C 1019.2 hPa South 18.5 km/h 6.8 km/h 89 % 0 mm
05:09 12.8 °C 11 °C 1019.2 hPa South 18.5 km/h 9.8 km/h 89 % 0 mm
05:14 12.9 °C 11.2 °C 1019.2 hPa South 16.1 km/h 15.1 km/h 89 % 0 mm
05:19 13.1 °C 11.3 °C 1019.2 hPa South 19.3 km/h 13 km/h 89 % 0 mm
05:24 13.3 °C 11.5 °C 1019.2 hPa South 16.7 km/h 13 km/h 89 % 0 mm
05:29 13.3 °C 11.5 °C 1019.2 hPa North 22.2 km/h 12.1 km/h 89 % 0 mm
05:34 13.3 °C 11.6 °C 1019.2 hPa North 24.1 km/h 18.3 km/h 89 % 0 mm
05:39 13.3 °C 11.5 °C 1019.2 hPa South 27.8 km/h 12.1 km/h 89 % 0 mm
05:44 13.2 °C 11.4 °C 1019.2 hPa SSE 18.5 km/h 13.2 km/h 89 % 0 mm
05:49 13.2 °C 11.4 °C 1018.8 hPa SSE 20.4 km/h 10.1 km/h 89 % 0 mm
05:54 13.2 °C 11.4 °C 1019.2 hPa SSE 18.5 km/h 11.1 km/h 89 % 0 mm
05:59 13.2 °C 11.4 °C 1019.2 hPa SSE 20.4 km/h 12.1 km/h 89 % 0 mm
06:04 13.2 °C 11.4 °C 1019.2 hPa SSE 18.5 km/h 11.6 km/h 89 % 0 mm
06:09 13.2 °C 11.4 °C 1019.2 hPa SSE 16.7 km/h 13.7 km/h 89 % 0 mm
06:14 13.2 °C 11.4 °C 1019.2 hPa SSE 22.2 km/h 12.6 km/h 89 % 0 mm
06:19 13.2 °C 11.4 °C 1019.2 hPa SSE 16.7 km/h 9.2 km/h 89 % 0 mm
06:24 13.2 °C 11.6 °C 1019.2 hPa SSE 18.5 km/h 10.3 km/h 90 % 0 mm
06:29 13.2 °C 11.6 °C 1019.2 hPa SSE 16.7 km/h 12.7 km/h 90 % 0 mm
06:34 13.2 °C 11.6 °C 1019.5 hPa SSE 18.5 km/h 17.4 km/h 90 % 0 mm
06:39 13.2 °C 11.4 °C 1019.5 hPa South 24.1 km/h 14 km/h 89 % 0 mm
06:44 13.2 °C 11.4 °C 1019.2 hPa South 27.8 km/h 16.1 km/h 89 % 0 mm
06:49 13.2 °C 11.4 °C 1019.2 hPa South 22.2 km/h 18.7 km/h 89 % 0 mm
06:54 13.2 °C 11.4 °C 1019.2 hPa South 27.8 km/h 12.7 km/h 89 % 0 mm
06:59 13.2 °C 11.4 °C 1019.5 hPa South 18.5 km/h 8.7 km/h 89 % 0 mm
07:04 13.2 °C 11.4 °C 1019.5 hPa South 13 km/h 8.7 km/h 89 % 0 mm
07:09 13.2 °C 11.4 °C 1019.5 hPa South 13 km/h 9 km/h 89 % 0 mm
07:14 13.2 °C 11.4 °C 1019.5 hPa South 9.3 km/h 4.3 km/h 89 % 0 mm
07:19 13.2 °C 11.4 °C 1019.5 hPa South 16.7 km/h 14 km/h 89 % 0 mm
07:24 13.3 °C 11.5 °C 1019.5 hPa South 18.5 km/h 11.6 km/h 89 % 0 mm
07:29 13.3 °C 11.5 °C 1019.5 hPa SSE 25.9 km/h 14.5 km/h 89 % 0 mm
07:34 13.4 °C 11.8 °C 1019.2 hPa South 18.5 km/h 21.1 km/h 90 % 0 mm
07:39 13.5 °C 11.9 °C 1019.2 hPa South 18.5 km/h 16.1 km/h 90 % 0 mm
07:44 13.6 °C 11.8 °C 1019.5 hPa South 20.4 km/h 10.3 km/h 89 % 0 mm
07:49 13.8 °C 12.1 °C 1019.5 hPa South 17.7 km/h 15 km/h 89 % 0 mm
07:54 14 °C 12.2 °C 1019.5 hPa South 22.2 km/h 14.3 km/h 89 % 0 mm
07:59 14.3 °C 12.3 °C 1019.5 hPa SSE 18.5 km/h 9 km/h 88 % 0 mm
08:04 14.5 °C 12.3 °C 1019.5 hPa South 18.5 km/h 8.9 km/h 87 % 0 mm
08:09 14.7 °C 12.5 °C 1019.5 hPa South 24.1 km/h 13.4 km/h 87 % 0 mm
08:14 14.7 °C 12.4 °C 1019.9 hPa South 24.1 km/h 16.7 km/h 86 % 0 mm
08:19 14.9 °C 12.6 °C 1019.5 hPa South 25.7 km/h 17.5 km/h 86 % 0 mm
08:24 15.2 °C 12.7 °C 1019.5 hPa South 18.5 km/h 10.5 km/h 85 % 0 mm
08:29 15.4 °C 12.7 °C 1019.9 hPa SSE 24.1 km/h 14 km/h 84 % 0 mm
08:34 15.7 °C 12.8 °C 1019.9 hPa South 16.1 km/h 12.1 km/h 83 % 0 mm
08:39 16.1 °C 13 °C 1019.9 hPa South 14.8 km/h 13.5 km/h 82 % 0 mm
08:44 16.4 °C 12.9 °C 1019.9 hPa SSE 14.8 km/h 14.8 km/h 80 % 0 mm
08:49 16.4 °C 12.8 °C 1019.9 hPa SSE 25.9 km/h 10.6 km/h 79 % 0 mm
08:54 16.6 °C 12.9 °C 1019.9 hPa South 24.1 km/h 13.2 km/h 79 % 0 mm
08:59 16.8 °C 12.9 °C 1019.9 hPa South 19.3 km/h 15 km/h 78 % 0 mm
09:04 17.2 °C 13.1 °C 1019.5 hPa South 9.7 km/h 14.6 km/h 77 % 0 mm
09:09 17.3 °C 12.8 °C 1019.9 hPa South 25.9 km/h 16.9 km/h 75 % 0 mm
09:14 17.3 °C 13.1 °C 1019.9 hPa South 19.3 km/h 15.1 km/h 76 % 0 mm
09:19 17.7 °C 13.2 °C 1019.9 hPa South 20.4 km/h 12.2 km/h 75 % 0 mm
09:24 18 °C 13.1 °C 1019.9 hPa South 27.8 km/h 12.4 km/h 73 % 0 mm
09:29 18.2 °C 13.2 °C 1019.9 hPa SSW 22.2 km/h 18 km/h 73 % 0 mm
09:34 18.3 °C 13.2 °C 1019.9 hPa South 25.9 km/h 10.9 km/h 72 % 0 mm
09:39 18.7 °C 13.3 °C 1019.9 hPa South 24.1 km/h 16.9 km/h 71 % 0 mm
09:44 18.9 °C 13.5 °C 1019.5 hPa SSE 20.4 km/h 8.9 km/h 71 % 0 mm
09:49 19.2 °C 13.2 °C 1019.5 hPa SSE 25.9 km/h 18.5 km/h 68 % 0 mm
09:54 19.4 °C 13.6 °C 1019.5 hPa SE 20.4 km/h 14.2 km/h 69 % 0 mm
09:59 19.8 °C 13.7 °C 1019.5 hPa South 20.4 km/h 15.9 km/h 68 % 0 mm
10:04 20.1 °C 13.7 °C 1019.5 hPa South 18.5 km/h 8.4 km/h 67 % 0 mm
10:09 20.3 °C 13.8 °C 1019.5 hPa North 22.5 km/h 14.6 km/h 66 % 0 mm
10:14 20.6 °C 13.5 °C 1019.5 hPa SSW 29.6 km/h 19.5 km/h 64 % 0 mm
10:19 20.7 °C 13.6 °C 1019.5 hPa SSE 29.6 km/h 15.3 km/h 64 % 0 mm
10:24 21 °C 13.7 °C 1019.5 hPa SSE 24.1 km/h 13.4 km/h 63 % 0 mm
10:29 21.4 °C 14.1 °C 1019.5 hPa SSE 27.8 km/h 12.4 km/h 63 % 0 mm
10:34 21.6 °C 14 °C 1019.9 hPa South 24.1 km/h 15.1 km/h 62 % 0 mm
10:39 21.6 °C 14 °C 1019.9 hPa SSE 18.5 km/h 13.7 km/h 62 % 0 mm
10:44 21.9 °C 14.3 °C 1019.9 hPa SSW 24.1 km/h 9.5 km/h 62 % 0 mm
10:49 21.9 °C 14.1 °C 1019.9 hPa South 25.9 km/h 15.1 km/h 61 % 0 mm
10:52 21.8 °C 13.7 °C 1019.9 hPa SSW 31.5 km/h 16.1 km/h 60 % 0 mm
10:59 21.9 °C 14.1 °C 1019.5 hPa SSE 29.6 km/h 15 km/h 61 % 0 mm
11:04 22.2 °C 14.1 °C 1019.5 hPa South 20.4 km/h 15.6 km/h 60 % 0 mm
11:09 22.3 °C 13.9 °C 1019.5 hPa SSW 27.8 km/h 13.7 km/h 59 % 0 mm
11:14 22.6 °C 14.2 °C 1019.5 hPa SSE 19.3 km/h 15 km/h 59 % 0 mm
11:19 22.7 °C 14.1 °C 1019.5 hPa SSE 22.2 km/h 17.5 km/h 58 % 0 mm
11:24 22.8 °C 14.1 °C 1019.5 hPa SSW 32.2 km/h 14.5 km/h 58 % 0 mm
11:29 22.9 °C 13.9 °C 1019.5 hPa SSE 22.2 km/h 16.7 km/h 57 % 0 mm
11:34 23.1 °C 14.1 °C 1019.5 hPa SSE 27.8 km/h 13.5 km/h 57 % 0 mm
11:39 23.3 °C 14.1 °C 1019.5 hPa SSE 22.5 km/h 20.4 km/h 56 % 0 mm
11:44 23.6 °C 14.3 °C 1019.5 hPa North 29.6 km/h 11.4 km/h 56 % 0 mm
11:49 23.9 °C 14.6 °C 1019.5 hPa SE 16.7 km/h 11.4 km/h 56 % 0 mm
11:54 24.1 °C 13.9 °C 1019.5 hPa South 33.3 km/h 21.2 km/h 53 % 0 mm
11:59 23.6 °C 14.1 °C 1019.5 hPa SSE 22.2 km/h 19 km/h 55 % 0 mm
12:04 23.7 °C 14.2 °C 1019.5 hPa SSE 22.5 km/h 17.5 km/h 55 % 0 mm
12:09 24 °C 14.4 °C 1019.5 hPa SE 24.1 km/h 18.2 km/h 55 % 0 mm
12:14 24.4 °C 14.5 °C 1019.5 hPa SSE 22.2 km/h 21.6 km/h 54 % 0 mm
12:19 24.3 °C 14.4 °C 1019.2 hPa SE 22.2 km/h 8.7 km/h 54 % 0 mm
12:24 24.6 °C 14.1 °C 1019.2 hPa North 24.1 km/h 19.5 km/h 52 % 0 mm
12:29 25 °C 14.4 °C 1019.2 hPa SE 16.7 km/h 10.6 km/h 52 % 0 mm
12:34 25.1 °C 13.9 °C 1019.2 hPa South 25.9 km/h 15.1 km/h 50 % 0 mm
12:39 24.9 °C 14.4 °C 1019.2 hPa SE 22.2 km/h 17.2 km/h 52 % 0 mm
12:44 25 °C 14.2 °C 1018.8 hPa SSE 18.5 km/h 8.7 km/h 51 % 0 mm
12:49 25.3 °C 14.1 °C 1018.8 hPa SSE 22.2 km/h 13.2 km/h 50 % 0 mm
12:54 25.6 °C 14.1 °C 1018.8 hPa SSE 19.3 km/h 18.7 km/h 49 % 0 mm
12:59 25.5 °C 14 °C 1018.8 hPa SE 29.6 km/h 16.7 km/h 49 % 0 mm
13:04 25.8 °C 14.3 °C 1018.8 hPa SE 24.1 km/h 13.7 km/h 49 % 0 mm
13:09 26.2 °C 14.3 °C 1018.8 hPa SE 20.4 km/h 12.2 km/h 48 % 0 mm
13:14 26.3 °C 14.1 °C 1018.5 hPa SE 20.4 km/h 11.9 km/h 47 % 0 mm
13:19 26.4 °C 14.2 °C 1018.5 hPa SE 24.1 km/h 18.5 km/h 47 % 0 mm
13:24 26.2 °C 13.9 °C 1018.5 hPa South 18.5 km/h 11.4 km/h 47 % 0 mm
13:29 26.3 °C 14.4 °C 1018.5 hPa SSE 31.5 km/h 18.8 km/h 48 % 0 mm
13:34 26.4 °C 14.2 °C 1018.2 hPa SE 24.1 km/h 13 km/h 47 % 0 mm
13:39 26.9 °C 13.9 °C 1018.2 hPa South 18.5 km/h 14.8 km/h 45 % 0 mm
13:44 27.1 °C 14.5 °C 1018.2 hPa SE 20.4 km/h 11.1 km/h 46 % 0 mm
13:49 27.3 °C 14.3 °C 1018.2 hPa SSE 31.5 km/h 14.8 km/h 45 % 0 mm
13:54 27.5 °C 14.5 °C 1018.2 hPa South 31.5 km/h 15.9 km/h 45 % 0 mm
13:59 27.1 °C 13.8 °C 1017.8 hPa SE 20.4 km/h 14.3 km/h 44 % 0 mm
14:04 27.2 °C 13.9 °C 1017.8 hPa SSE 29 km/h 19 km/h 44 % 0 mm
14:09 27.2 °C 14.2 °C 1017.8 hPa SSE 25.9 km/h 15.3 km/h 45 % 0 mm
14:14 27.3 °C 14.3 °C 1017.8 hPa SE 24.1 km/h 20.8 km/h 45 % 0 mm
14:19 27.7 °C 14.3 °C 1017.5 hPa South 20.4 km/h 24.6 km/h 44 % 0 mm
14:24 27.6 °C 14.3 °C 1017.5 hPa SSW 22.2 km/h 16.1 km/h 44 % 0 mm
14:29 27.4 °C 14.4 °C 1017.5 hPa SE 30.6 km/h 20.9 km/h 45 % 0 mm
14:34 27.7 °C 14.3 °C 1017.5 hPa SSE 33.3 km/h 23 km/h 44 % 0 mm
14:39 27.8 °C 14.1 °C 1017.5 hPa SSE 24.1 km/h 13 km/h 43 % 0 mm
14:44 27.7 °C 14 °C 1017.5 hPa SSW 20.4 km/h 18 km/h 43 % 0 mm
14:49 27.6 °C 13.9 °C 1017.5 hPa SSE 18.5 km/h 12.1 km/h 43 % 0 mm
14:54 27.8 °C 14.1 °C 1017.5 hPa SE 24.1 km/h 15.3 km/h 43 % 0 mm
14:59 28.1 °C 14 °C 1017.5 hPa SSE 31.5 km/h 17.9 km/h 42 % 0 mm
15:04 28.4 °C 14.2 °C 1017.2 hPa SE 20.4 km/h 11.1 km/h 42 % 0 mm
15:09 28.6 °C 14.1 °C 1017.2 hPa SSW 29 km/h 16.3 km/h 41 % 0 mm
15:14 28.6 °C 14.1 °C 1017.2 hPa SSE 25.7 km/h 11.4 km/h 41 % 0 mm
15:19 28.6 °C 14 °C 1017.2 hPa SSE 22.2 km/h 17.2 km/h 41 % 0 mm
15:24 28.9 °C 14 °C 1017.2 hPa SE 20.9 km/h 16.9 km/h 40 % 0 mm
15:29 28.8 °C 13.9 °C 1016.8 hPa South 25.9 km/h 16.9 km/h 40 % 0 mm
15:34 28.8 °C 14.2 °C 1016.8 hPa SE 20.4 km/h 13.5 km/h 41 % 0 mm
15:39 28.6 °C 14.1 °C 1016.8 hPa SE 22.2 km/h 15 km/h 41 % 0 mm
15:44 28.7 °C 14.1 °C 1016.8 hPa South 25.9 km/h 18.3 km/h 41 % 0 mm
15:49 28.6 °C 14.1 °C 1016.8 hPa SSE 31.5 km/h 16.6 km/h 41 % 0 mm
15:54 28.9 °C 13.9 °C 1016.5 hPa South 24.1 km/h 16.3 km/h 40 % 0 mm
15:59 29.1 °C 13.7 °C 1016.5 hPa SSE 24.1 km/h 21.4 km/h 39 % 0 mm
16:04 29.1 °C 13.7 °C 1016.5 hPa South 27.8 km/h 15 km/h 39 % 0 mm
16:09 29 °C 13.7 °C 1016.5 hPa SSE 20.9 km/h 21.4 km/h 39 % 0 mm
16:14 28.9 °C 13.6 °C 1016.5 hPa SSE 24.1 km/h 20.9 km/h 39 % 0 mm
16:19 29.1 °C 13.3 °C 1016.5 hPa SSE 18.5 km/h 11.4 km/h 38 % 0 mm
16:24 29 °C 13.2 °C 1016.5 hPa South 22.5 km/h 12.9 km/h 38 % 0 mm
16:29 29.2 °C 13.4 °C 1016.1 hPa SE 27.8 km/h 10.8 km/h 38 % 0 mm
16:34 29.4 °C 13.2 °C 1016.1 hPa SSE 27.8 km/h 19.6 km/h 37 % 0 mm
16:39 29.2 °C 13.1 °C 1016.1 hPa SSE 22.2 km/h 9.7 km/h 37 % 0 mm
16:44 29.2 °C 12.6 °C 1016.1 hPa SSE 29.6 km/h 16.7 km/h 36 % 0 mm
16:49 29.3 °C 12.2 °C 1016.1 hPa South 19.3 km/h 16.9 km/h 35 % 0 mm
16:54 29.3 °C 12.7 °C 1016.1 hPa SE 20.9 km/h 15 km/h 36 % 0 mm
16:59 29.5 °C 12 °C 1016.1 hPa SSE 33.3 km/h 14.8 km/h 34 % 0 mm
17:04 29.6 °C 12.1 °C 1016.1 hPa South 31.5 km/h 19.6 km/h 34 % 0 mm
17:09 29.8 °C 12.2 °C 1015.8 hPa SE 25.9 km/h 12.6 km/h 34 % 0 mm
17:14 29.6 °C 11.6 °C 1015.8 hPa SE 25.9 km/h 12.4 km/h 33 % 0 mm
17:19 29.3 °C 11.4 °C 1015.8 hPa SE 29.6 km/h 18.7 km/h 33 % 0 mm
17:24 29.6 °C 11.6 °C 1015.8 hPa SE 27.8 km/h 22 km/h 33 % 0 mm
17:29 29.6 °C 11.6 °C 1015.8 hPa SSE 29.6 km/h 16.9 km/h 33 % 0 mm
17:34 29.5 °C 11.1 °C 1015.8 hPa South 24.1 km/h 15.9 km/h 32 % 0 mm
17:39 29.5 °C 11.1 °C 1015.8 hPa SSW 31.5 km/h 13 km/h 32 % 0 mm
17:44 29.5 °C 11.1 °C 1015.8 hPa SSE 18.5 km/h 15.6 km/h 32 % 0 mm
17:49 29.6 °C 11.1 °C 1015.8 hPa SE 29 km/h 17.5 km/h 32 % 0 mm
17:54 29.6 °C 11.1 °C 1015.8 hPa South 31.5 km/h 16.7 km/h 32 % 0 mm
17:59 29.4 °C 11.4 °C 1015.8 hPa SE 18.5 km/h 8.9 km/h 33 % 0 mm
18:04 29.3 °C 10.9 °C 1015.5 hPa SE 22.2 km/h 17.9 km/h 32 % 0 mm
18:09 29.3 °C 11.3 °C 1015.5 hPa SSE 24.1 km/h 16.1 km/h 33 % 0 mm
18:14 29 °C 11.6 °C 1015.5 hPa SSE 20.4 km/h 11.7 km/h 34 % 0 mm
18:19 28.9 °C 11.4 °C 1015.5 hPa South 27.8 km/h 17.2 km/h 34 % 0 mm
18:24 28.7 °C 11.3 °C 1015.5 hPa South 18.5 km/h 16.3 km/h 34 % 0 mm
18:29 28.9 °C 11.9 °C 1015.8 hPa South 17.7 km/h 12.9 km/h 35 % 0 mm
18:34 28.9 °C 12.3 °C 1015.5 hPa SSE 22.2 km/h 14.2 km/h 36 % 0 mm
18:39 28.9 °C 12.7 °C 1015.8 hPa SSE 18.5 km/h 17.5 km/h 37 % 0 mm
18:44 28.9 °C 13.2 °C 1015.8 hPa SE 18.5 km/h 18.2 km/h 38 % 0 mm
18:49 28.6 °C 13.3 °C 1015.8 hPa South 25.7 km/h 19 km/h 39 % 0 mm
18:54 28.4 °C 13.5 °C 1015.5 hPa South 22.2 km/h 12.7 km/h 40 % 0 mm
18:59 28.5 °C 13.6 °C 1015.5 hPa South 20.4 km/h 15.8 km/h 40 % 0 mm
19:04 28.2 °C 13.7 °C 1015.5 hPa SSW 29.6 km/h 17.7 km/h 41 % 0 mm
19:09 28 °C 13.9 °C 1015.8 hPa South 24.1 km/h 15.3 km/h 42 % 0 mm
19:14 28 °C 14.3 °C 1015.8 hPa SSE 22.2 km/h 13.2 km/h 43 % 0 mm
19:19 27.9 °C 14.2 °C 1015.8 hPa SSW 16.7 km/h 12.2 km/h 43 % 0 mm
19:24 27.9 °C 14.2 °C 1015.8 hPa South 20.4 km/h 13.8 km/h 43 % 0 mm
19:29 27.8 °C 14.1 °C 1015.8 hPa South 24.1 km/h 18.2 km/h 43 % 0 mm
19:34 27.6 °C 14.3 °C 1015.8 hPa South 20.4 km/h 12.7 km/h 44 % 0 mm
19:39 27.6 °C 14.3 °C 1015.8 hPa South 20.4 km/h 11.9 km/h 44 % 0 mm
19:44 27.5 °C 14.5 °C 1015.8 hPa SE 27.8 km/h 9.7 km/h 45 % 0 mm
19:49 27.3 °C 14.3 °C 1015.8 hPa South 14.8 km/h 9 km/h 45 % 0 mm
19:54 27.3 °C 14.3 °C 1015.8 hPa SSW 18.5 km/h 12.4 km/h 45 % 0 mm
19:59 27.2 °C 14.6 °C 1015.8 hPa SSW 18.5 km/h 9.2 km/h 46 % 0 mm
20:04 27 °C 14.4 °C 1015.8 hPa SSW 18.5 km/h 13.2 km/h 46 % 0 mm
20:09 26.8 °C 14.2 °C 1015.8 hPa South 22.2 km/h 7.2 km/h 46 % 0 mm
20:14 26.7 °C 14.4 °C 1015.8 hPa South 16.7 km/h 6 km/h 47 % 0 mm
20:19 26.5 °C 14.6 °C 1015.8 hPa SSW 18.5 km/h 13.7 km/h 48 % 0 mm
20:24 26.2 °C 14.6 °C 1015.8 hPa SSW 24.1 km/h 15 km/h 49 % 0 mm
20:29 25.8 °C 14.6 °C 1016.1 hPa South 31.5 km/h 17.1 km/h 50 % 0 mm
20:34 25.4 °C 14.6 °C 1016.1 hPa South 27.8 km/h 11.9 km/h 51 % 0 mm
20:39 25.2 °C 14.6 °C 1016.1 hPa South 18.5 km/h 11.4 km/h 52 % 0 mm
20:44 24.9 °C 14.7 °C 1016.5 hPa SSW 25.9 km/h 15.4 km/h 53 % 0 mm
20:49 24.7 °C 14.7 °C 1016.5 hPa South 18.5 km/h 15.4 km/h 54 % 0 mm
20:54 24.4 °C 14.8 °C 1016.5 hPa South 24.1 km/h 12.4 km/h 55 % 0 mm
20:59 24.2 °C 14.8 °C 1016.5 hPa South 29.6 km/h 15.4 km/h 56 % 0 mm
21:04 23.6 °C 15.1 °C 1016.5 hPa North 29.6 km/h 15 km/h 59 % 0 mm
21:09 23.2 °C 14.9 °C 1016.5 hPa SSW 24.1 km/h 13 km/h 60 % 0 mm
21:14 22.8 °C 14.9 °C 1016.8 hPa South 14.8 km/h 12.4 km/h 61 % 0 mm
21:19 22.6 °C 14.9 °C 1016.8 hPa SSW 25.9 km/h 15.3 km/h 62 % 0 mm
21:24 22.2 °C 14.8 °C 1016.8 hPa South 25.9 km/h 13.8 km/h 63 % 0 mm
21:29 21.9 °C 14.8 °C 1016.8 hPa South 31.5 km/h 11.6 km/h 64 % 0 mm
21:34 21.6 °C 15 °C 1017.2 hPa South 25.9 km/h 13 km/h 66 % 0 mm
21:39 21.3 °C 14.7 °C 1017.2 hPa SSW 27.8 km/h 13.7 km/h 66 % 0 mm
21:44 21.1 °C 14.7 °C 1017.2 hPa North 18.5 km/h 13.8 km/h 67 % 0 mm
21:49 20.8 °C 14.7 °C 1017.2 hPa SSW 24.1 km/h 16.6 km/h 68 % 0 mm
21:54 20.6 °C 14.7 °C 1017.2 hPa North 22.2 km/h 13.2 km/h 69 % 0 mm
21:59 20.4 °C 14.6 °C 1017.2 hPa SSW 25.9 km/h 13.4 km/h 69 % 0 mm
22:04 20.3 °C 14.6 °C 1017.2 hPa South 16.7 km/h 9.5 km/h 70 % 0 mm
22:09 20.1 °C 14.7 °C 1017.5 hPa SSW 18.5 km/h 11.6 km/h 71 % 0 mm
22:14 20 °C 14.6 °C 1017.5 hPa South 20.4 km/h 9.5 km/h 71 % 0 mm
22:19 19.9 °C 14.5 °C 1017.5 hPa SSW 16.7 km/h 13.2 km/h 71 % 0 mm
22:24 19.7 °C 14.6 °C 1017.5 hPa SSW 18.5 km/h 14 km/h 72 % 0 mm
22:29 19.6 °C 14.4 °C 1017.5 hPa South 14.8 km/h 10.3 km/h 72 % 0 mm
22:34 19.4 °C 14.3 °C 1017.5 hPa South 18.5 km/h 10.8 km/h 72 % 0 mm
22:39 19.3 °C 14.3 °C 1017.5 hPa South 16.7 km/h 11.9 km/h 73 % 0 mm
22:44 19.1 °C 14.1 °C 1017.8 hPa South 18.5 km/h 14.2 km/h 73 % 0 mm
22:49 18.9 °C 14.2 °C 1017.8 hPa SSW 18.5 km/h 15.3 km/h 74 % 0 mm
22:54 18.7 °C 14.2 °C 1017.8 hPa SSW 18.5 km/h 13 km/h 75 % 0 mm
22:59 18.6 °C 14.2 °C 1017.8 hPa SSW 20.4 km/h 12.9 km/h 76 % 0 mm
23:04 18.4 °C 14.1 °C 1017.8 hPa SSW 16.7 km/h 9.8 km/h 76 % 0 mm
23:09 18.3 °C 14.2 °C 1017.8 hPa SSW 16.7 km/h 11.9 km/h 77 % 0 mm
23:14 18.2 °C 14.3 °C 1017.8 hPa South 18.5 km/h 15 km/h 78 % 0 mm
23:19 17.9 °C 14.1 °C 1017.5 hPa South 22.2 km/h 9.5 km/h 78 % 0 mm
23:24 17.9 °C 14.2 °C 1017.8 hPa South 16.7 km/h 10.5 km/h 79 % 0 mm
23:29 17.8 °C 14.1 °C 1017.8 hPa North 13 km/h 10.8 km/h 79 % 0 mm
23:34 17.6 °C 14.1 °C 1017.5 hPa SSW 24.1 km/h 19.3 km/h 80 % 0 mm
23:39 17.5 °C 14 °C 1017.8 hPa South 18.5 km/h 11.3 km/h 80 % 0 mm
23:44 17.3 °C 14.1 °C 1017.5 hPa SSW 18.5 km/h 9.8 km/h 81 % 0 mm
23:49 17.1 °C 14 °C 1017.5 hPa South 14.8 km/h 14.6 km/h 82 % 0 mm
23:54 16.9 °C 14.1 °C 1017.5 hPa SSW 18.5 km/h 11.7 km/h 83 % 0 mm
23:59 16.8 °C 13.9 °C 1017.5 hPa SSW 16.7 km/h 12.4 km/h 83 % 0 mm
Ararat Weather
Compliments of Weather Underground - 2.25 mb
Click here to send mail.


ABOUT

Live weather data from Ararat, Victoria, Australia, 3377
Data uploaded from Cumulus every 5 minutes to Weather Underground.
This site then downloads the raw data for formatting and display.
Metric and imperial data can be displayed. Graphs and historical data available.
Includes Sun and Moon times and rain image live from BOM.

Check out Ararat Weather on Facebook, Twitter and Google +

Help support ongoing costs by checking out the ads





Follow @AraratWeather